STARLINK-1011 (44717 NORAD) Tracking and Keplerian Element Data

This shows tracking and keplerian element data for the satellite.

Feedback or suggestion? Click here.




ElementValue
Catalog44717
NameSTARLINK-1011
Epoch Orbit1474
Epoch Day45.25001157
Epoch Year2020
RAAN72.1132
Inclination52.9987
Eccentricity0.0001677
Argument of Perigee63.1254
Mean Anonmoly76.4065
Mean Motion15.05597506
Decay Rate-0.00030885
L11 44717U 19074E 20045.25001157 -.00030885 00000-0 -21087-2 0 9992
L22 44717 52.9987 72.1132 0001677 63.1254 76.4065 15.05597506 14740

Live tracking and technical data element details for STARLINK-1011 (NORAD 44717). STARLINK-1011 can be tracked NOW for your location showing map with azimuth and elevation plus other details from your city location.

Track the satellite on the map from your city or location and see movement details for azimuth, elevation, latitude, longitude, range, height, and movement on the map or in text.







IsCatalogInMostPopularTable: catalog: 44717, numindb: 16
Update: records affected: 1



GetName: 44717 STARLINK-1011

Hit Count: updated at: Mon, 17 Feb 2020 10:27:14 GMT